Location: Artigues
(43.0756°N, 0.0025°E)
Time: 22:22:07
(UTC+00:00)

Daily predictions for brighter satellites

Satellite Brightness Start Highest point End
(mag) Time Altitude Azimuth Time Altitude Azimuth Time Altitude Azimuth
Feng Yun 1-1 Rocket 4.5 16:47:54 10° SE 16:53:00 45° ENE 16:58:06 10° N
Cosmos 2219 Rocket 2.3 16:49:39 10° S 16:55:07 58° ESE 17:00:40 10° NNE
BREEZE-M R/B 4.0 16:50:26 10° W 16:57:26 48° NNW 17:01:01 10° NE
Cosmos 1844 Rocket 3.2 16:57:29 10° NNW 17:03:01 66° WSW 17:08:32 10° SSE
Cosmos 1733 Rocket 3.7 16:59:15 10° N 17:03:15 34° ENE 17:07:15 10° SE
Cosmos 1536 4.2 17:02:22 10° NNE 17:05:18 19° ENE 17:08:12 10° ESE
Cosmos 1269 Rocket 4.4 17:00:18 10° SSW 17:05:35 69° WNW 17:10:54 10° NNE
SMAP 3.2 17:01:15 10° SSE 17:05:45 53° ENE 17:10:17 10° N
PSLV R/B 3.9 17:02:44 10° NNE 17:06:55 77° ESE 17:11:02 10° S
Cosmos 1602 4.0 17:03:11 10° NNW 17:07:03 74° W 17:10:55 10° S
Cosmos 1500 3.9 17:05:23 10° NNE 17:08:44 30° ENE 17:12:04 10° SE
CZ-4 R/B 3.0 17:07:53 10° E 17:09:55 14° ENE 17:11:56 10° NNE
Cosmos 1869 Rocket 4.2 17:05:51 10° NNW 17:10:13 60° W 17:14:34 10° S
Cosmos 1340 3.0 17:06:36 10° NNW 17:10:22 69° W 17:14:07 10° S
ALOS 4.1 17:09:02 10° SSW 17:13:19 36° W 17:17:38 10° NNW
H-2A R/B 2.7 17:10:27 10° SSE 17:14:03 52° ENE 17:17:40 10° N
Cosmos 2180 Rocket 4.5 17:10:19 10° N 17:16:35 71° E 17:22:53 10° SSE
ATLAS 2AS CENTAUR R/B 3.8 17:09:54 10° WSW 17:17:37 50° NW 17:25:23 10° NNE
Lacrosse 5 rocket 1.6 17:13:58 10° SSW 17:18:15 59° SE 17:21:46 13° NE
COSMOS 2428 2.7 17:15:00 10° SSW 17:20:39 90° W 17:26:24 10° NNE
Cosmos 304 Rocket 3.7 17:16:05 10° NNW 17:20:55 86° ENE 17:25:44 10° SSE
YAOGAN 6 3.8 17:19:33 10° ESE 17:22:13 20° ENE 17:24:54 10° NNE
Cosmos 1302 Rocket 4.1 17:20:41 10° NNW 17:25:59 83° WSW 17:31:13 10° SSE
Meteor 1-5 Rocket 4.1 17:20:28 10° N 17:26:02 70° ENE 17:31:24 10° SSE
SL-4 R/B 2.3 17:24:22 10° WSW 17:28:00 52° NNW 17:31:03 16° NE
IRS-1C Rocket 4.2 17:22:59 10° SSE 17:28:16 84° WSW 17:33:35 10° NNW
Okean O Rocket 3.8 17:25:47 10° SSW 17:29:36 30° W 17:33:25 10° NW
Cosmos 2251 Rocket 3.6 17:25:22 10° S 17:30:34 57° ESE 17:35:45 10° NNE
NOSS 0 Rocket 4.1 17:25:09 10° S 17:31:12 58° ESE 17:37:19 10° NNE
Cosmos 1092 Rocket 4.5 17:25:31 10° SSE 17:31:13 37° E 17:36:55 10° NNE
ATLAS 5 CENTAUR R/B 0.8 17:32:24 10° SSW 17:35:05 54° SE 17:35:54 29° ENE
Cosmos 2242 Rocket 4.1 17:30:53 10° SSE 17:35:08 41° E 17:39:26 10° NNE
FengYun 1-2 T 4.5 17:32:38 10° SE 17:37:47 43° ENE 17:42:57 10° N
Cosmos 1862 Rocket 3.4 17:33:43 10° S 17:38:00 71° E 17:42:23 10° NNE
ERBS 3.2 17:36:14 10° NW 17:39:29 50° SW 17:42:44 10° SSE
NOSS 2 (A) 3.7 17:38:06 10° NNW 17:40:31 76° NE 17:42:28 14° SE
Okean-O 2.5 17:37:40 10° SSE 17:42:04 69° ENE 17:46:29 10° N
USA 215 4.3 17:44:09 13° NE 17:49:23 36° NNW 17:55:13 10° W
Cosmos 1666 3.0 17:50:01 10° N 17:53:34 40° ENE 17:57:04 10° SSE
Envisat 2.9 17:48:39 10° SSE 17:53:43 79° ENE 17:58:49 10° N
Cosmos 2278 Rocket 2.1 17:50:56 10° NNW 17:56:38 82° ENE 18:02:17 10° SSE
Cosmos 2360 Rocket 4.5 17:58:27 10° W 18:02:12 18° NW 18:05:59 10° N
BREEZE-M DEB (TANK) 2.3 17:59:03 10° W 18:03:34 54° N 18:04:16 42° NE
Cosmos 407 Rocket 4.4 17:59:40 10° SSE 18:03:54 27° E 18:03:54 27° E
SL-16 R/B 2.8 18:04:05 10° SSE 18:09:06 33° ESE 18:09:56 32° E
Shenzhou-11 Module 1.9 18:08:10 10° W 18:10:38 69° W 18:10:38 69° W
Cosmos 2369 Rocket 4.2 18:08:42 10° NNE 18:09:07 11° NNE 18:09:07 11° NNE
Nadezhda 4 Rocket 4.3 18:05:25 10° SSW 18:11:42 70° W 18:18:03 10° N
Cosmos 1992 Rocket 4.0 18:06:28 10° NNW 18:11:43 85° WSW 18:16:56 10° SSE
Cosmos 2333 Rocket 3.6 18:07:17 10° WSW 18:12:32 36° NW 18:17:51 10° N
RESURS DK-1 4.0 18:10:17 10° WSW 18:13:59 31° NW 18:17:10 13° N
STARLINK-46 4.3 18:11:54 10° W 18:14:04 24° NNW 18:14:04 24° NNW
Cosmos 1908 Rocket 3.4 18:10:02 10° N 18:14:27 79° E 18:18:49 10° S
COSMO-SKYMED 1 2.5 18:12:09 16° NNE 18:15:38 90° WSW 18:19:58 10° SSW
NOAA 15 4.5 18:10:45 10° SSE 18:15:57 65° ENE 18:21:10 10° N
ISS -3.8 18:13:47 10° NW 18:17:00 71° N 18:17:00 71° N
Cosmos 1553 Rocket 4.4 18:11:48 10° N 18:17:41 38° ENE 18:23:35 10° SE
Meteor 1-27 Rocket 4.4 18:14:08 10° SSW 18:19:44 57° WNW 18:25:29 10° N
Cosmos 1812 4.4 18:16:21 10° SW 18:19:51 33° WNW 18:23:24 10° N
STARLINK-60 3.5 18:17:59 10° SW 18:20:54 51° S 18:20:54 51° S
Cosmos 2237 Rocket 2.3 18:16:02 10° SSW 18:21:43 75° WNW 18:25:48 20° NNE
YAOGAN 1 2.4 18:19:06 10° SSE 18:23:23 70° ENE 18:27:42 10° N
BREEZE-M DEB (TANK) 2.2 18:24:02 10° WNW 18:27:30 59° WNW 18:27:30 59° WNW
USA 116 4.3 18:24:32 19° NNE 18:28:32 79° ESE 18:33:41 10° S
Cosmos 1900 4.2 18:28:12 10° NNW 18:33:07 85° WSW 18:35:41 28° SSE
Cosmos 2026 Rocket 3.8 18:28:20 10° S 18:34:24 81° E 18:40:29 10° N
Cosmos 2219 Rocket 4.2 18:35:01 10° WSW 18:39:29 24° NW 18:43:59 10° N
Okean 1-7 3.0 18:37:19 10° S 18:41:37 79° W 18:42:13 64° NNW
Meteor 1-18 Rocket 4.1 18:38:04 10° S 18:43:46 67° E 18:44:37 58° NE
CZ-4 R/B 2.2 18:40:44 10° S 18:44:33 49° W 18:48:20 10° NNW
DMSP B5D1-3 4.3 18:47:33 75° ENE 18:47:49 77° ESE 18:52:55 10° S
Cosmos 1417 Rocket 4.3 18:42:26 10° N 18:48:32 61° E 18:54:35 10° SSE
Cosmos 1655 Rocket 4.4 18:45:49 10° SSE 18:50:25 44° SE 18:50:25 44° SE
Cosmos 1190 Rocket 4.4 18:48:56 10° S 18:52:51 49° SSE 18:52:51 49° SSE
Cosmos 2297 3.6 18:51:18 10° NNW 18:56:47 76° NNE 18:56:47 76° NNE
Lacrosse 5 rocket 3.1 18:54:05 10° W 18:57:26 26° NW 18:57:26 26° NW
Cosmos 1943 Rocket 4.1 18:56:28 10° N 18:57:45 16° N 18:57:45 16° N
CSL-04 Rocket 4.2 18:56:20 10° S 19:01:30 55° W 19:06:41 10° NNW
SL-4 R/B 4.2 19:05:01 10° WNW 19:06:39 19° NW 19:06:39 19° NW
SL-16 R/B 3.6 19:47:50 10° SW 19:51:52 34° W 19:51:52 34° W
